Regional Weather Roundup
Issued by NWS

Home | Current Version | Previous Version | Graphics & Text | Print | Product List | Glossary On
Versions: 1 2 3 4 5 6 7 8 9 10 11 12 13 14 15 16 17 18 19 20 21 22 23 24 25 26 27 28 29 30 31 32 33 34 35 36 37 38 39 40 41 42 43 44 45 46 47 48 49 50
000
ASUS45 KBOU 231407
RWRCO

WEATHER ROUNDUP FOR COLORADO
NATIONAL WEATHER SERVICE DENVER/BOULDER CO
800 AM MDT SAT MAY 23 2015

NOTE: "FAIR" INDICATES FEW OR NO CLOUDS BELOW 12000 FEET WITH NO
SIGNIFICANT WEATHER AND/OR OBSTRUCTIONS TO VISIBILITY.

COZ001>005-013-030-031-231500-
...NORTHWEST COLORADO...

CITY           SKY/WX    TMP DP  RH WIND       PRES   REMARKS
CRAIG          SUNNY     47  38  71 SE12      29.99S
HAYDEN         MOSUNNY   45  37  76 E10       30.00F
MEEKER         SUNNY     45  38  76 MISG      29.99R
MOUNT WERNER   NOT AVBL
STEAMBOAT SPGS MOSUNNY   39  36  89 CALM      30.02F
WALDEN         PTSUNNY   37  34  87 CALM      30.06F
$$

COZ006>008-011-231500-
...WEST CENTRAL VALLEYS...

CITY           SKY/WX    TMP DP  RH WIND       PRES   REMARKS
GRAND JUNCTION MOSUNNY   53  41  63 SE12      29.95R
MONTROSE       SUNNY     52  36  54 SE5       30.00S
EAGLE          MOSUNNY   45  43  93 CALM      30.05F
RIFLE          SUNNY     51  42  71 E5        29.97S
DELTA          SUNNY     54  42  66 MISG      29.98S
NUCLA          PTSUNNY   46  32  57 E7        30.05R
$$

COZ017>023-064>068-231500-
...SOUTHWEST COLORADO...

CITY           SKY/WX    TMP DP  RH WIND       PRES   REMARKS
DURANGO        MOSUNNY   45  37  73 CALM      30.04S
CORTEZ         PTSUNNY   42  37  82 CALM      30.03R
PAGOSA SPRINGS MOSUNNY   46  37  70 E5        30.08S THUNDER
TELLURIDE      MOSUNNY   39  24  53 CALM      30.07F
WOLF CREEK PAS NOT AVBL
$$

COZ009-010-012-014-032>034-037-058>063-231500-
...CENTRAL COLORADO...

CITY           SKY/WX    TMP DP  RH WIND       PRES   REMARKS
ASPEN          MOSUNNY   43  34  70 N3        30.03F
BUENA VISTA    PTSUNNY   43  36  74 E3        30.09S
COPPER MTN     MOSUNNY   30  27  86 SE3       30.19S
BERTHOUD PASS  HAZE      27  18  69 E18       30.22S VSB<1/4 WCI  13
COTTONWOOD PAS CLOUDY    41  34  75 CALM      30.13S
GUNNISON       MOSUNNY   37  34  87 NE7       30.10F
KREMMLING      MOSUNNY   41  36  81 SE3       30.08F
LEADVILLE      CLOUDY    33  31  92 SW3       30.12S
SALIDA         PTSUNNY   46  39  78 CALM      30.15S
SUNLIGHT       CLOUDY    34  34 100 E5          N/A  FOG     WCI  30
WILKERSON PASS PTSUNNY   32  32 100 S5        30.21S WCI  27
$$

COZ069>075-231500-
...SAN LUIS VALLEY/SANGRE DE CRISTO MOUNTAINS...

CITY           SKY/WX    TMP DP  RH WIND       PRES   REMARKS
ALAMOSA        PTSUNNY   45  37  73 VRB3      30.07R
LA VETA PASS   MOSUNNY  N/A N/A N/A MISG      30.16S
SAGUACHE       PTSUNNY   45  34  65 NW13      30.09R
$$

COZ035-036-038>040-231500-
...NORTHERN COLORADO FRONT RANGE...

CITY           SKY/WX    TMP DP  RH WIND       PRES   REMARKS
DENVER INTL AP DRIZZLE   50  48  93 CALM      30.03F FOG
DMNS CITY PARK   N/A     50  49  93 NW1       30.04S
AURORA         CLOUDY    49  46  87 SW1       30.04F
FRONT RANGE AP CLOUDY    50  50 100 CALM      30.04F FOG
ERIE MUNI ARPT CLOUDY    48  48  99 CALM      30.04F FOG
BOULDER MUN AP CLOUDY    46  46 100 CALM      30.04S
CENTENNIAL     PTSUNNY   50  46  86 SW3       30.04S
BROOMFIELD     CLOUDY    48  48 100 CALM      30.05S FOG
FORT COLLINS   CLOUDY    48  46  93 SE5       30.06S VSB 1/2
LONGMONT       FOG       50  49  96 CALM      30.06S VSB 1/4
$$

COZ041-046-047-076>085-087-088-231500-
...PIKES PEAK/PALMER DIVIDE AND SOUTHERN FOOTHILLS...

CITY           SKY/WX    TMP DP  RH WIND       PRES   REMARKS
COLO. SPRINGS  PTSUNNY   50  45  83 NW5       30.06S
A. F. ACADEMY  MOSUNNY   48  45  87 NW8       30.05F
ELLICOTT       NOT AVBL
FALCON         PTSUNNY   48  44  86 NE8       30.08S
FORT CARSON    PTSUNNY   52  46  81 N9        30.04S
LIMON          CLOUDY    51  51 100 S6        30.03R
MONUMENT HILL  NOT AVBL
TRINIDAD       CLOUDY    50  46  86 CALM      30.02S
$$

COZ042>045-048>051-090-091-231500-
...NORTHEAST COLORADO...

CITY           SKY/WX    TMP DP  RH WIND       PRES   REMARKS
GREELEY ARPT   CLOUDY    48  46  93 NW3       30.04F VSB 3/4
AKRON          FOG       52  52 100 SE9       30.02R VSB<1/4
BURLINGTON     CLOUDY    55  54  96 SE14      30.02F
WRAY           FOG      N/A N/A N/A SE9       30.02S VSB 1
STERLING       FOG       52  52 100 NE3       30.00F VSB 1
HOLYOKE        NOT AVBL
FORT MORGAN    CLOUDY    50  49  95 CALM      30.02S
$$

COZ086-089-092>099-231500-
...SOUTHEAST COLORADO...

CITY           SKY/WX    TMP DP  RH WIND       PRES   REMARKS
PUEBLO         CLOUDY    53  49  86 N7        30.01R
LA JUNTA       CLOUDY    56  50  80 SE14      29.99S
LAMAR          CLOUDY    54  50  86 CALM      29.99R
SPRINGFIELD      N/A     51  51 100 E6        30.01S
$$


USA.gov is the U.S. government's official web portal to all federal, state and local government web resources and services.